Location: Ottawa
(45.4170°N, 75.7000°W)
Time: 12:02:00
(UTC-05:00)

Daily predictions for brighter satellites

Satellite Brightness Start Highest point End
(mag) Time Altitude Azimuth Time Altitude Azimuth Time Altitude Azimuth
Cosmos 2034 Rocket 4.3 17:11:58 10° N 17:18:21 82° W 17:24:43 10° S
ATLAS 3B R/B 4.4 17:13:14 10° WNW 17:18:53 23° NNW 17:24:22 10° NNE
USA 215 3.4 17:19:22 10° ESE 17:25:44 56° NNE 17:32:07 10° NW
Cosmos 2084 4.4 17:23:56 10° S 17:27:13 26° ESE 17:30:25 10° ENE
Meteor 1-21 Rocket 4.3 17:22:11 10° S 17:28:05 77° E 17:33:57 10° NNE
CORIOLIS 4.1 17:25:47 10° SSE 17:31:07 80° ENE 17:36:31 10° NNW
ATLAS 5 CENTAUR R/B 4.2 17:30:08 10° NNW 17:32:09 12° N 17:34:14 10° NNE
Cosmos 2333 Rocket 2.8 17:27:26 10° S 17:32:31 36° ESE 17:37:38 10° NE
ALOS 4.0 17:31:19 10° E 17:33:02 12° ENE 17:34:46 10° NE
Cosmos 1766 Rocket 3.9 17:29:20 10° SSW 17:33:47 73° W 17:38:14 10° N
OTV 4 2.9 17:32:06 10° SW 17:34:14 18° S 17:36:21 10° SE
SJ-6B 4.4 17:32:11 10° ESE 17:34:50 17° ENE 17:37:29 10° NNE
Cosmos 2219 Rocket 2.4 17:36:33 10° S 17:42:02 54° ESE 17:47:31 10° NE
Resurs 01 Rocket 3.4 17:40:15 10° E 17:42:13 13° ENE 17:44:10 10° NNE
COSMO-SKYMED 1 3.2 17:38:18 10° NNE 17:42:20 36° E 17:46:20 10° SSE
Cosmos 371 Rocket 3.6 17:38:08 10° S 17:42:44 47° ESE 17:47:20 10° NNE
Cosmos 2322 Rocket 4.3 17:40:25 10° W 17:44:35 20° NW 17:48:46 10° N
Molniya-1 4.1 17:42:24 10° SSW 17:45:13 77° SE 17:50:18 10° NE
YAOGAN 1 2.8 17:40:56 10° S 17:45:15 74° WSW 17:49:36 10° NNW
Thor Agena Rocket 3.6 17:40:55 10° NNE 17:46:13 80° ESE 17:51:24 10° SSW
Cosmos 1125 Rocket 3.5 17:41:27 10° NNW 17:46:38 60° ENE 17:51:45 10° SE
CZ-4 R/B 4.5 17:42:52 10° SSE 17:47:01 90° W 17:51:11 10° NNW
Cosmos 2278 Rocket 2.3 17:41:26 10° NNW 17:47:03 56° ENE 17:52:37 10° SE
SPOT 3 Rocket 3.9 17:43:43 10° S 17:48:51 71° WSW 17:54:02 10° NNW
Cosmos 2058 3.9 17:45:27 10° SSE 17:48:52 26° E 17:52:19 10° NNE
Cosmos 2279 Rocket 4.3 17:44:32 10° N 17:50:27 43° ENE 17:56:20 10° SE
USA 116 3.7 17:48:07 10° N 17:51:22 59° WNW 17:54:25 10° SSW
Cosmos 2228 Rocket 3.4 17:47:26 10° NNW 17:51:50 71° W 17:56:14 10° S
SMAP 3.9 17:48:13 10° S 17:52:47 55° W 17:57:22 10° NNW
Cosmos 1844 4.0 17:52:57 10° NNW 17:58:44 75° WSW 18:04:30 10° SSE
FREGAT/IRIS 4.1 17:59:50 19° NE 17:59:50 19° NE 18:01:34 10° NNE
Cosmos 1626 4.1 17:58:19 10° ESE 17:59:17 13° ESE 17:59:17 13° ESE
NOAA 12 4.4 17:55:48 10° SE 18:00:43 43° ENE 18:05:42 10° N
Cosmos 841 Rocket 3.7 17:56:53 10° SSW 18:02:09 77° WNW 18:07:27 10° NNE
Cosmos 44 Rocket 3.4 17:57:25 10° SSW 18:02:31 69° ESE 18:06:56 13° NE
Cosmos 1340 Rocket 3.7 17:59:41 10° SSE 18:03:04 27° E 18:05:16 17° NE
Cosmos 1674 3.8 17:59:27 10° SSW 18:03:07 46° WNW 18:06:52 10° N
CENTAUR R/B 2.9 17:58:34 10° SW 18:04:43 67° NW 18:11:44 10° NE
IDEFIX/ARIANE 42P 4.1 18:02:22 10° SSW 18:07:13 39° W 18:12:07 10° NNW
SL-14 R/B 3.3 18:05:30 10° S 18:09:21 58° E 18:13:16 10° NNE
Lacrosse 5 3.3 18:05:59 10° WNW 18:10:15 26° NNW 18:13:44 14° NE
SKYMED 3 4.5 18:08:07 10° NNE 18:12:29 75° ESE 18:16:49 10° S
DNEPR-1 R/B 4.4 18:05:40 10° SSW 18:12:33 76° ESE 18:17:18 15° NE
COSMOS 2428 3.5 18:07:53 10° SW 18:13:28 52° WNW 18:19:03 10° NNE
Cosmos 1484 Rocket 3.3 18:10:02 10° S 18:13:55 64° W 18:17:54 10° NNW
Cosmos 2237 Rocket 2.2 18:08:37 10° S 18:14:07 60° ESE 18:19:13 12° NNE
Cosmos 1726 2.2 18:11:12 10° N 18:14:59 83° W 18:18:45 10° S
CZ-2C R/B 4.5 18:12:01 10° SSW 18:16:24 31° W 18:20:42 10° NNW
Cosmos 1743 Rocket 4.4 18:12:09 10° SSW 18:16:31 52° WNW 18:20:55 10° N
Cosmos 2369 Rocket 4.1 18:14:37 10° NNE 18:16:36 12° NE 18:16:36 12° NE
Cosmos 1300 2.8 18:14:53 10° NNW 18:18:44 78° W 18:22:34 10° S
SL-16 R/B 3.0 18:14:52 10° SSE 18:19:40 29° ESE 18:21:40 24° ENE
Cosmos 2151 2.8 18:15:36 10° S 18:19:48 79° E 18:24:01 10° N
Timation 1 Rocket 4.3 18:18:20 10° NNW 18:24:19 61° ENE 18:30:16 10° SE
Cosmos 304 Rocket 4.3 18:22:01 10° S 18:26:27 38° ESE 18:28:10 28° ENE
Cosmos 2297 3.8 18:21:37 10° NNW 18:27:14 56° ENE 18:32:52 10° SE
SKYMED 2 3.8 18:26:11 10° N 18:30:32 71° WNW 18:34:51 10° SSW
Cosmos 1151 Rocket 3.8 18:27:39 10° NNW 18:31:49 53° W 18:35:59 10° S
Aureole 2 Rocket 2.7 18:28:30 10° S 18:32:07 56° ESE 18:33:25 36° NE
Cosmos 1805 Rocket 3.6 18:31:18 10° S 18:35:37 53° E 18:38:21 22° NNE
BREEZE M DEB (TANK) 1.7 18:34:18 10° WNW 18:36:52 51° SSW 18:37:00 50° SSW
Orbus 7S? 4.4 18:33:31 10° NW 18:37:14 46° NE 18:40:09 28° E
Lacrosse 5 rocket 1.2 18:34:29 10° NW 18:38:16 77° SW 18:40:18 27° SE
Abrixas 3.8 18:37:39 10° SSW 18:39:46 28° S 18:39:46 28° S
Meteor 1-28 Rocket 3.4 18:39:50 11° N 18:43:20 67° WNW 18:47:01 10° SSW
Meteor 1-11 4.3 18:41:36 10° SSW 18:47:17 80° W 18:53:05 10° N
CZ-4C R/B 4.2 18:51:58 10° NNW 18:56:17 18° NNE 18:57:30 17° NNE
Sich 1 3.1 18:53:07 10° S 18:57:08 57° ESE 18:57:08 57° ESE
NOSS 0 Rocket 4.4 18:54:08 10° SW 19:00:16 59° WNW 19:05:22 15° NNE
Cosmos 1980 4.3 18:56:16 10° SW 19:01:50 57° WNW 19:06:12 17° NNE
Cosmos 1633 Rocket 3.8 18:57:40 10° S 19:00:37 39° SSE 19:00:37 39° SSE
Lacrosse 4 Rocket 3.2 18:58:53 10° NNW 19:00:22 19° N 19:00:22 19° N
FengYun 1-2 T 4.1 18:57:28 10° SSE 19:03:02 79° ENE 19:08:35 10° NNW
Cosmos 2084 4.4 19:03:03 10° WSW 19:06:36 34° NW 19:07:19 31° NNW
FENGYUN 3A 3.5 19:01:24 10° SSE 19:06:45 79° ENE 19:12:09 10° NNW
Cosmos 540 Rocket 4.3 19:01:52 10° SW 19:06:52 48° WNW 19:10:58 15° N
USA 215 3.8 19:02:20 10° SSE 19:08:45 56° SW 19:15:12 10° WNW
SJ-6B 3.8 19:05:10 10° S 19:09:06 49° W 19:13:08 10° NNW
ALOS 2.1 19:05:04 10° SSE 19:09:44 88° ENE 19:14:27 10° NNW
Cosmos 44 4.0 19:06:38 10° SW 19:11:46 54° NW 19:13:37 35° N
ATLAS 3B R/B 4.4 19:07:52 10° NW 19:12:26 17° N 19:13:57 16° NNE
Cosmos 2333 Rocket 3.4 19:11:29 10° WSW 19:16:44 39° NW 19:20:56 15° N
Resurs 01 Rocket 1.6 19:17:34 69° SSW 19:18:03 81° WSW 19:22:32 10° NNW
ATLAS 5 CENTAUR R/B 4.0 19:15:11 10° NNW 19:18:04 18° N 19:18:04 18° N
Cosmos 1461 3.9 19:15:37 10° SSW 19:18:18 38° SSW 19:18:18 38° SSW
Cosmos 1703 4.2 19:17:34 10° SSW 19:21:19 46° WNW 19:21:53 42° NW
Cosmos 1707 Rocket 4.4 19:17:41 10° NNW 19:21:53 49° W 19:26:03 10° SSW
Cosmos 2219 Rocket 4.0 19:21:32 10° WSW 19:26:18 27° NW 19:30:32 12° N
Cosmos 2278 Rocket 4.4 19:26:17 10° NW 19:30:43 24° WSW 19:35:07 10° SSW
Cosmos 1666 Rocket 4.3 19:30:16 10° SSW 19:34:05 50° W 19:34:05 50° W
Cosmos 1626 4.0 19:31:57 10° SSW 19:34:02 27° SW 19:34:02 27° SW
Spot 2 Rocket 4.0 19:33:22 10° S 19:38:19 56° W 19:43:18 10° NNW
Cosmos 1943 Rocket 4.4 19:34:17 10° N 19:34:43 12° N 19:34:43 12° N
Cosmos 1538 Rocket 4.5 19:43:49 10° SW 19:48:47 59° W 19:48:47 59° W
USA 229 DEB 4.1 19:44:24 10° SSW 19:49:29 50° S 19:49:29 50° S
USA 229 4.1 19:44:30 10° SSW 19:49:32 49° S 19:49:32 49° S
Lacrosse 5 3.9 19:50:38 10° NW 19:52:57 19° NNW 19:52:57 19° NNW
CENTAUR R/B 4.4 19:51:33 10° WNW 19:56:50 24° NNW 19:59:12 21° N
Cosmos 2237 Rocket 4.1 19:53:58 10° WSW 19:58:36 26° NW 20:01:05 19° NNW
Cosmos 2369 Rocket 4.1 19:56:39 10° NNW 19:58:25 20° N 19:58:25 20° N
SL-16 R/B 3.0 19:58:09 10° SW 20:03:34 46° WNW 20:03:37 46° NW
BREEZE-M DEB (TANK) 4.5 19:56:59 10° WNW 20:08:56 59° NW 20:08:56 59° NW
